Wind_Speed
21 23 27 28 27 29 27 27 27 26 28 26 25 22 18 16 22 22 20 21 24 25 25 26 28 27 28 26 27 27 24 22
21 23 27 29 29 30 29 28 29 26 26 29 28 27 22 24 25 21 22 25 24 27 26 25 28 26 28 28 30 28 26 25
19 22 26 29 31 33 30 30 31 28 27 31 30 30 24 22 24 24 20 24 24 27 27 23 29 29 29 30 30 30 30 25
19 20 25 28 31 34 33 32 32 29 29 32 32 32 28 25 25 24 25 21 29 30 31 31 27 33 33 33 31 33 30 28
20 19 26 28 32 35 34 34 32 29 30 32 34 33 30 27 25 27 27 28 25 26 27 31 33 32 34 35 34 34 31 29
22 22 26 29 34 37 37 36 30 29 31 32 34 35 31 28 27 27 30 29 26 30 30 31 27 37 37 34 36 36 34 32
25 25 26 30 34 37 38 37 32 31 31 34 34 36 32 29 28 29 30 27 22 24 27 30 37 38 34 32 37 37 38 33
29 28 28 29 34 36 37 37 33 30 31 34 35 35 31 29 28 27 27 25 24 20 22 20 30 37 37 25 38 38 40 35
31 29 31 30 33 34 35 35 31 29 31 33 33 34 32 30 29 27 24 24 24 21 23 23 21 34 40 36 37 40 40 38
32 32 30 32 33 32 32 29 31 27 30 30 30 32 32 32 30 27 25 25 26 23 29 26 25 37 35 31 35 37 37 38
33 33 29 33 33 33 29 30 27 27 28 27 30 31 30 30 29 28 28 30 32 26 29 36 32 41 38 25 34 36 35 37
34 33 29 34 33 31 28 30 27 27 26 28 30 30 26 23 25 28 30 32 32 29 30 35 33 41 41 29 33 34 35 34
34 32 33 32 31 29 32 29 27 27 26 29 30 28 28 22 23 30 40 30 29 29 30 34 35 39 33 31 33 34 31 31
34 36 35 25 29 30 34 28 26 26 27 30 30 27 28 26 28 27 34 34 35 32 34 33 41 43 35 30 28 31 33 31
33 35 34 26 29 33 31 24 26 25 29 29 27 27 28 30 28 26 34 34 34 39 36 34 40 43 34 27 32 28 31 30
35 34 34 27 31 32 26 25 24 26 28 27 26 28 27 29 35 32 35 39 38 37 36 37 42 44 37 28 29 32 29 28
34 36 33 29 32 27 24 24 25 27 27 25 26 27 29 30 30 32 35 35 40 40 39 42 45 47 32 34 30 30 29 32
34 34 30 28 28 23 23 24 27 27 24 25 26 28 31 30 34 34 41 40 35 32 38 43 45 46 36 32 29 31 31 31
35 32 28 28 22 23 22 26 26 24 23 25 27 24 25 30 28 33 37 39 36 37 38 42 46 39 37 30 32 29 31 30
33 28 30 22 25 21 22 24 23 21 22 23 24 22 27 25 25 26 33 36 36 33 40 46 44 34 37 34 36 34 33 31
Wind_Direction
281 288 294 298 298 297 298 292 291 294 291 287 281 275 276 273 264 274 261 255 263 235 233 228 225 216 215 216 215 215 214 213
283 287 291 295 296 295 295 293 289 292 290 286 280 272 274 277 271 268 262 254 251 224 221 212 212 214 212 215 216 214 217 214
280 285 289 294 293 294 296 293 290 291 290 285 277 272 270 272 273 271 262 249 235 231 231 223 209 213 215 215 220 214 215 221
279 281 285 288 289 288 292 290 289 291 290 285 278 267 266 272 275 269 261 257 245 255 241 237 234 222 220 216 220 222 219 225
278 280 281 285 287 285 288 287 285 288 287 285 278 267 265 265 271 276 267 255 265 252 242 231 232 218 215 215 219 225 225 213
276 276 277 284 286 284 284 283 282 286 285 282 277 264 262 260 270 274 271 262 260 254 252 218 243 217 213 215 217 223 225 225
275 276 277 281 284 281 279 280 279 280 280 282 275 266 260 261 267 270 269 253 242 249 238 232 230 222 214 217 219 222 224 225
275 280 280 281 276 273 273 274 274 280 280 280 272 266 263 261 264 269 261 242 229 234 232 222 220 218 220 216 217 219 225 227
276 280 283 277 270 269 271 273 274 281 278 277 268 262 262 262 263 263 250 224 223 217 222 220 234 214 221 236 219 220 225 229
274 281 281 276 269 270 272 275 273 281 279 274 267 263 263 260 258 256 250 223 229 227 233 216 224 217 227 231 223 226 231 230
277 281 277 267 269 271 273 269 278 283 280 268 266 265 264 258 253 244 240 227 227 223 220 225 226 223 224 234 225 228 231 228
276 281 280 267 268 270 268 269 279 284 273 268 268 264 258 261 248 237 242 232 230 219 219 223 225 217 227 226 224 227 232 233
278 280 280 260 267 265 265 269 278 283 268 268 268 261 248 253 245 238 231 233 225 231 221 229 215 222 231 223 223 227 230 241
276 283 281 255 262 258 263 268 285 275 270 268 269 259 246 249 246 232 234 230 219 230 231 228 225 230 226 222 227 222 236 249
275 274 268 243 250 251 261 277 278 271 271 272 267 258 251 243 252 245 228 220 227 225 218 222 222 221 225 220 225 235 239 239
276 265 258 240 247 252 265 279 271 270 268 272 265 261 256 248 245 246 228 216 216 214 225 228 220 221 224 223 222 227 227 228
268 253 245 237 245 252 269 273 268 264 268 273 268 260 259 257 251 238 217 212 211 221 224 222 222 222 232 221 227 230 229 233
253 242 237 237 239 254 265 266 263 259 269 271 264 262 265 264 250 231 214 209 210 218 217 216 218 221 223 220 229 233 232 236
245 237 235 232 242 252 261 260 258 262 269 270 265 268 271 274 231 221 217 220 217 223 224 215 215 219 218 223 222 228 230 237
236 231 229 231 242 250 250 252 256 262 269 270 270 274 271 251 230 222 217 216 215 228 213 212 217 216 220 223 226 233 241 246
Height
5802 5802 5800 5800 5799 5797 5796 5796 5795 5794 5794 5794 5792 5791 5793 5792 5792 5792 5792 5794 5794 5795 5796 5797 5801 5804 5807 5811 5814 5815 5817 5821
5798 5797 5796 5795 5793 5792 5791 5791 5790 5789 5789 5788 5787 5786 5787 5788 5786 5787 5787 5789 5788 5791 5792 5793 5797 5801 5804 5807 5810 5812 5814 5818
5794 5792 5790 5788 5786 5785 5785 5785 5785 5785 5784 5783 5782 5782 5782 5782 5782 5779 5779 5782 5783 5785 5788 5790 5793 5797 5800 5803 5805 5810 5811 5816
5788 5786 5784 5782 5781 5779 5780 5779 5779 5779 5779 5779 5778 5777 5777 5777 5777 5776 5776 5776 5778 5779 5783 5786 5789 5793 5796 5798 5801 5805 5808 5813
5781 5781 5777 5776 5775 5774 5774 5774 5773 5773 5773 5772 5772 5771 5773 5772 5772 5771 5771 5772 5771 5774 5775 5780 5784 5786 5791 5793 5797 5801 5805 5810
5773 5773 5771 5770 5769 5768 5767 5767 5768 5768 5767 5766 5766 5765 5766 5766 5765 5765 5765 5767 5767 5770 5772 5775 5778 5781 5785 5788 5791 5796 5800 5805
5764 5765 5766 5765 5764 5762 5761 5760 5761 5761 5761 5760 5759 5758 5759 5760 5759 5760 5760 5761 5763 5765 5766 5770 5772 5777 5779 5784 5787 5791 5796 5801
5756 5757 5758 5758 5757 5756 5754 5753 5754 5754 5753 5753 5752 5751 5752 5755 5754 5755 5754 5755 5759 5760 5763 5763 5768 5772 5775 5779 5781 5786 5792 5797
5747 5749 5749 5749 5748 5748 5747 5746 5747 5748 5747 5745 5745 5746 5746 5747 5747 5749 5747 5750 5754 5757 5758 5762 5766 5768 5771 5774 5778 5783 5787 5792
5740 5742 5741 5740 5739 5739 5739 5739 5740 5741 5740 5738 5739 5739 5738 5739 5741 5742 5742 5745 5749 5753 5756 5760 5764 5765 5768 5772 5775 5780 5784 5788
5731 5732 5732 5730 5730 5731 5732 5733 5733 5733 5732 5732 5732 5732 5731 5731 5734 5736 5738 5741 5744 5747 5751 5757 5759 5762 5765 5768 5772 5776 5781 5784
5722 5722 5723 5722 5722 5723 5724 5725 5726 5725 5725 5725 5725 5725 5724 5724 5726 5729 5732 5736 5738 5742 5747 5751 5753 5756 5761 5765 5768 5773 5777 5780
5713 5713 5714 5714 5716 5717 5717 5718 5718 5717 5719 5718 5719 5717 5718 5718 5720 5723 5728 5729 5734 5737 5741 5746 5749 5752 5757 5760 5763 5768 5772 5775
5704 5704 5703 5707 5708 5709 5709 5711 5710 5711 5712 5712 5711 5711 5711 5713 5714 5716 5720 5723 5728 5730 5736 5740 5743 5747 5754 5757 5761 5766 5769 5771
5696 5695 5695 5699 5700 5701 5703 5704 5704 5705 5705 5705 5704 5704 5704 5706 5708 5709 5712 5717 5719 5726 5731 5734 5738 5743 5749 5752 5756 5762 5763 5765
5688 5687 5688 5691 5693 5695 5697 5698 5698 5699 5699 5698 5697 5697 5697 5699 5701 5702 5705 5710 5715 5719 5725 5730 5734 5739 5743 5747 5751 5754 5758 5760
5680 5679 5681 5684 5687 5689 5691 5692 5692 5694 5693 5692 5691 5690 5690 5691 5693 5695 5697 5702 5707 5713 5718 5723 5728 5734 5738 5744 5747 5750 5754 5754
5671 5673 5675 5678 5681 5684 5685 5686 5687 5688 5687 5686 5684 5685 5683 5684 5682 5687 5690 5696 5702 5707 5712 5717 5722 5729 5734 5738 5742 5745 5748 5749
5664 5667 5669 5672 5676 5678 5680 5682 5683 5683 5682 5681 5679 5678 5676 5675 5675 5680 5685 5690 5696 5701 5706 5712 5717 5723 5729 5733 5737 5740 5742 5745
5658 5661 5664 5667 5670 5673 5676 5677 5679 5678 5677 5676 5674 5672 5670 5668 5669 5672 5678 5684 5689 5694 5699 5706 5712 5717 5723 5728 5732 5736 5738 5740